Weather History for KMFR - July, 2013

Change the Weather History Date:

Sunday, July 28, 2013

  Actual Average Record
Temperature  
Mean Temperature 74 °F 76 °F  
Max Temperature 92 °F 93 °F 108 °F (2009)
Min Temperature 55 °F 59 °F 45 °F (1948)
Degree Days  
Heating Degree Days 0 0  
Month to date heating degree days 0 1  
Since 1 June heating degree days 35 55  
Since 1 July heating degree days 0 1  
Cooling Degree Days 9 11  
Month to date cooling degree days 408 255  
Year to date cooling degree days 589 401  
Since 1 June cooling degree days 554 363  
Growing Degree Days 24 (Base 50)    
Moisture  
Dew Point 39 °F    
Average Humidity 35    
Maximum Humidity 55    
Minimum Humidity 14    
Precipitation  
Precipitation 0.00 in 0.01 in 0.02 in (1947)
Month to date precipitation 0.00 0.26  
Year to date precipitation 4.13 9.72  
Snow  
Snow 0.00 in 0.00 in - ()
Month to date snowfall 0.0 0.0  
Since 1 July snowfall 0.0 0.0  
Snow Depth 0.00 in    
Sea Level Pressure  
Sea Level Pressure 29.90 in    
Wind  
Wind Speed 3 mph (NNW)    
Max Wind Speed 17 mph    
Max Gust Speed 22 mph    
Visibility 10 miles    
Events      
T = Trace of Precipitation, MM = Missing Value Source: NWS Daily Summary

Daily Weather History Graph

Daily Weather History Graph

Search for Another Location

Airport or City:

Trip Planner

Search our weather history database for the weather conditions in past years. The results will help you decide how hot, cold, wet, or windy it might be!

Date:

Astronomy

Jul. 28, 2013 Rise Set
Actual Time 6:00 AM PDT 8:35 PM PDT
Civil Twilight 5:28 AM PDT 9:07 PM PDT
Nautical Twilight 4:47 AM PDT 9:47 PM PDT
Astronomical Twilight 4:02 AM PDT 10:32 PM PDT
Moon 11:49 PM PDT (7/28) 12:57 PM PDT (7/28)
Length of Visible Light 15h 39m
Length of Day
14h 34m
Waning Gibbous, 60% of the Moon is Illuminated
Jul 28
Waning Gibbous
Jul 29
Last Quarter
Aug 6
New
Aug 14
First Quarter
Aug 20
Full

Hourly Weather History & Observations

Time (PDT) Temp. Dew Point Humidity Pressure Visibility Wind Dir Wind Speed Gust Speed Precip Events Conditions
12:53 AM 66.9 °F 37.0 °F 33% 29.94 in 10.0 mi Calm Calm - N/A   Mostly Cloudy
1:53 AM 64.9 °F 39.9 °F 40% 29.94 in 10.0 mi Calm Calm - N/A   Clear
2:53 AM 63.0 °F 39.9 °F 43% 29.95 in 10.0 mi Calm Calm - N/A   Clear
3:53 AM 61.0 °F 39.0 °F 44% 29.94 in 10.0 mi Calm Calm - N/A   Clear
4:53 AM 59.0 °F 41.0 °F 51% 29.95 in 10.0 mi Calm Calm - N/A   Clear
5:53 AM 57.9 °F 41.0 °F 53% 29.96 in 10.0 mi Calm Calm - N/A   Clear
6:53 AM 57.0 °F 41.0 °F 55% 29.98 in 10.0 mi Calm Calm - N/A   Clear
7:53 AM 60.1 °F 41.0 °F 49% 29.97 in 10.0 mi Calm Calm - N/A   Clear
8:53 AM 64.0 °F 41.0 °F 43% 29.97 in 10.0 mi Variable 4.6 mph - N/A   Clear
9:53 AM 69.1 °F 42.1 °F 38% 29.95 in 9.0 mi Calm Calm - N/A   Clear
10:53 AM 73.9 °F 43.0 °F 33% 29.93 in 10.0 mi Variable 3.5 mph - N/A   Clear
11:53 AM 79.0 °F 39.9 °F 25% 29.91 in 7.0 mi Calm Calm - N/A   Haze
12:04 PM 78.8 °F 39.2 °F 24% 29.94 in 7.0 mi NNW 3.5 mph - N/A   Clear
12:53 PM 82.0 °F 37.0 °F 20% 29.89 in 7.0 mi Calm Calm - N/A   Clear
1:53 PM 84.9 °F 41.0 °F 21% 29.87 in 10.0 mi Calm Calm - N/A   Clear
2:53 PM 89.1 °F 39.9 °F 18% 29.84 in 10.0 mi NNW 3.5 mph - N/A   Clear
3:53 PM 91.0 °F 39.9 °F 17% 29.81 in 10.0 mi West 9.2 mph - N/A   Clear
4:53 PM 91.0 °F 35.1 °F 14% 29.80 in 10.0 mi WNW 8.1 mph - N/A   Clear
5:53 PM 90.0 °F 35.1 °F 14% 29.80 in 10.0 mi NNW 12.7 mph - N/A   Clear
6:53 PM 84.9 °F 35.1 °F 17% 29.82 in 10.0 mi NNW 12.7 mph - N/A   Clear
7:53 PM 82.9 °F 37.0 °F 19% 29.83 in 10.0 mi NNW 9.2 mph - N/A   Clear
8:53 PM 78.1 °F 36.0 °F 22% 29.85 in 10.0 mi North 6.9 mph - N/A   Clear
9:53 PM 72.0 °F 37.0 °F 28% 29.86 in 10.0 mi Calm Calm - N/A   Clear
10:53 PM 68.0 °F 39.0 °F 35% 29.87 in 10.0 mi ENE 3.5 mph - N/A   Clear
11:53 PM 69.1 °F 41.0 °F 36% 29.87 in 10.0 mi Calm Calm - N/A   Clear